| time (UTC) | temp F | wind direction | speed knots | gust knots | rain 1hr in | rain 24hr in | rain mn in | humidity % | barometer mb |
| 20260504223028 | 79 | 107 | 11.3 | 15.6 | 0.00 | 0.04 | 0.04 | 85 | 1015.0 |
| 20260504221609 | 79 | 105 | 7.8 | 13.9 | 0.00 | 0.04 | 0.04 | 85 | 1015.1 |
| 20260504220056 | 79 | 100 | 10.4 | 15.6 | 0.00 | 0.04 | 0.04 | 84 | 1014.9 |
| 20260504214526 | 80 | 121 | 10.4 | 15.6 | 0.00 | 0.04 | 0.04 | 82 | 1015.0 |
| 20260504213032 | 80 | 85 | 9.6 | 14.8 | 0.00 | 0.04 | 0.04 | 82 | 1015.1 |
| 20260504211523 | 81 | 76 | 9.6 | 13.0 | 0.00 | 0.04 | 0.04 | 81 | 1015.1 |
| 20260504210023 | 82 | 90 | 8.7 | 13.0 | 0.00 | 0.04 | 0.04 | 81 | 1015.1 |
| 20260504204528 | 82 | 81 | 5.2 | 8.7 | 0.00 | 0.04 | 0.04 | 78 | 1015.1 |
| 20260504203022 | 82 | 74 | 4.3 | 8.7 | 0.00 | 0.04 | 0.04 | 78 | 1015.1 |
| 20260504201520 | 83 | 61 | 3.5 | 7.0 | 0.00 | 0.04 | 0.04 | 78 | 1015.1 |
| 20260504200019 | 82 | 51 | 2.6 | 5.2 | 0.00 | 0.04 | 0.04 | 78 | 1015.1 |
| 20260504194524 | 83 | 35 | 2.6 | 4.3 | 0.00 | 0.04 | 0.04 | 74 | 1015.3 |
| 20260504193020 | 85 | 294 | 2.6 | 7.0 | 0.00 | 0.04 | 0.04 | 71 | 1015.5 |
| 20260504191527 | 87 | 355 | 3.5 | 7.0 | 0.00 | 0.04 | 0.04 | 68 | 1015.6 |
| 20260504190015 | 88 | 274 | 6.1 | 8.7 | 0.00 | 0.04 | 0.04 | 68 | 1015.7 |
| 20260504184518 | 87 | 277 | 5.2 | 7.8 | 0.00 | 0.04 | 0.04 | 68 | 1016.1 |
| 20260504183014 | 88 | 283 | 3.5 | 9.6 | 0.00 | 0.04 | 0.04 | 70 | 1016.2 |
| 20260504181516 | 88 | 305 | 6.1 | 8.7 | 0.00 | 0.04 | 0.04 | 70 | 1016.2 |
| 20260504180016 | 88 | 273 | 5.2 | 9.6 | 0.00 | 0.04 | 0.04 | 69 | 1016.2 |
| 20260504174511 | 88 | 279 | 5.2 | 9.6 | 0.00 | 0.04 | 0.04 | 71 | 1016.3 |
| 20260504173011 | 89 | 273 | 6.1 | 9.6 | 0.00 | 0.04 | 0.04 | 67 | 1016.3 |
| 20260504171540 | 87 | 296 | 7.0 | 9.6 | 0.00 | 0.04 | 0.04 | 69 | 1016.3 |
| 20260504081518 | 78 | 184 | 7.0 | 9.6 | 0.00 | 0.00 | 0.00 | 93 | 1014.8 |
| 20260504050025 | 78 | 194 | 0.9 | 3.5 | 0.00 | 0.00 | 0.00 | 93 | 1016.7 |
| 20260504044525 | 79 | 147 | 0.9 | 3.5 | 0.00 | 0.00 | 0.00 | 92 | 1016.7 |
| 20260504043024 | 79 | 133 | 0.9 | 4.3 | 0.00 | 0.00 | 0.00 | 93 | 1017.0 |
| 20260504041524 | 79 | 147 | 0.9 | 4.3 | 0.00 | 0.00 | 0.00 | 92 | 1017.1 |
| 20260504040037 | 79 | 148 | 0.9 | 2.6 | 0.00 | 0.00 | 0.00 | 92 | 1017.2 |
| 20260504034523 | 79 | 117 | 0.9 | 3.5 | 0.00 | 0.00 | 0.00 | 92 | 1017.2 |
| 20260504033022 | 79 | 162 | 0.9 | 3.5 | 0.00 | 0.00 | 0.00 | 92 | 1017.2 |
| 20260504031521 | 79 | 135 | 0.9 | 4.3 | 0.00 | 0.00 | 0.00 | 92 | 1017.2 |
| 20260504030017 | 79 | 143 | 0.9 | 3.5 | 0.00 | 0.00 | 0.00 | 92 | 1017.1 |
| 20260504024517 | 79 | 144 | 0.0 | 1.7 | 0.00 | 0.00 | 0.00 | 91 | 1017.0 |
| 20260504023016 | 79 | 90 | 0.0 | 1.7 | 0.00 | 0.00 | 0.00 | 91 | 1017.0 |
| 20260504021516 | 79 | 130 | 0.0 | 2.6 | 0.00 | 0.00 | 0.00 | 91 | 1016.9 |
| 20260504020046 | 79 | 126 | 1.7 | 5.2 | 0.00 | 0.00 | 0.00 | 90 | 1016.8 |
| 20260504014557 | 79 | 134 | 0.9 | 4.3 | 0.00 | 0.00 | 0.00 | 90 | 1016.8 |
| 20260504013043 | 79 | 136 | 0.9 | 2.6 | 0.00 | 0.00 | 0.00 | 90 | 1016.6 |
| 20260504011543 | 80 | 102 | 0.9 | 1.7 | 0.00 | 0.00 | 0.00 | 90 | 1016.9 |
| 20260504010050 | 80 | 109 | 0.0 | 1.7 | 0.00 | 0.00 | 0.00 | 90 | 1016.6 |
| 20260504004548 | 79 | 148 | 0.0 | 0.0 | 0.00 | 0.00 | 0.00 | 89 | 1016.5 |
| 20260504003043 | 80 | 169 | 0.0 | 1.7 | 0.00 | 0.00 | 0.00 | 89 | 1016.3 |
| 20260504001530 | 80 | 169 | 0.0 | 0.0 | 0.00 | 0.00 | 0.00 | 88 | 1016.1 |
| 20260504000029 | 81 | 109 | 0.0 | 2.6 | 0.00 | 0.00 | 0.00 | 87 | 1015.8 |
| 20260503234533 | 81 | 121 | 0.0 | 2.6 | 0.00 | 0.00 | 0.00 | 86 | 1015.5 |
| 20260503231529 | 82 | 183 | 0.9 | 2.6 | 0.00 | 0.00 | 0.00 | 82 | 1015.4 |
| 20260503230029 | 83 | 192 | 0.9 | 4.3 | 0.00 | 0.00 | 0.00 | 80 | 1015.5 |
| 20260503224529 | 83 | 236 | 1.7 | 2.6 | 0.00 | 0.00 | 0.00 | 80 | 1015.4 |